| time (UTC) | temp F | wind direction | speed MPH | gust MPH | rain 1hr in | rain 24hr in | rain mn in | humidity % | barometer mb |
| 20260504050334 | 44 | 20 | 0.0 | 2.0 | 0.00 | 0.00 | 0.00 | 65 | 1015.4 |
| 20260504045831 | 44 | 57 | 2.0 | 2.0 | 0.00 | 0.00 | 0.00 | 67 | 1015.5 |
| 20260504045326 | 44 | 54 | 2.0 | 3.0 | 0.00 | 0.00 | 0.00 | 69 | 1015.4 |
| 20260504044823 | 44 | 59 | 2.0 | 2.0 | 0.00 | 0.00 | 0.00 | 68 | 1015.5 |
| 20260504044320 | 45 | 78 | 2.0 | 2.0 | 0.00 | 0.00 | 0.00 | 66 | 1015.6 |
| 20260504043818 | 45 | 51 | 2.0 | 2.0 | 0.00 | 0.00 | 0.00 | 62 | 1015.7 |
| 20260504043314 | 45 | 19 | 1.0 | 2.0 | 0.00 | 0.00 | 0.00 | 57 | 1015.6 |
| 20260504042812 | 45 | 29 | 1.0 | 3.0 | 0.00 | 0.00 | 0.00 | 60 | 1015.6 |
| 20260504042308 | 45 | 46 | 2.0 | 2.0 | 0.00 | 0.00 | 0.00 | 61 | 1015.4 |
| 20260504041805 | 45 | 326 | 0.0 | 2.0 | 0.00 | 0.00 | 0.00 | 60 | 1015.4 |
| 20260504041301 | 45 | 29 | 2.0 | 2.0 | 0.00 | 0.00 | 0.00 | 57 | 1015.6 |
| 20260504040757 | 45 | 33 | 2.0 | 2.0 | 0.00 | 0.00 | 0.00 | 58 | 1015.6 |
| 20260504040255 | 45 | 49 | 2.0 | 3.0 | 0.00 | 0.00 | 0.00 | 61 | 1015.4 |
| 20260504035750 | 45 | 53 | 2.0 | 3.0 | 0.00 | 0.00 | 0.00 | 62 | 1015.4 |
| 20260504035248 | 45 | 52 | 2.0 | 2.0 | 0.00 | 0.00 | 0.00 | 62 | 1015.5 |
| 20260504034745 | 45 | 59 | 2.0 | 2.0 | 0.00 | 0.00 | 0.00 | 65 | 1015.4 |
| 20260504034242 | 45 | 57 | 2.0 | 2.0 | 0.00 | 0.00 | 0.00 | 62 | 1015.1 |
| 20260504033740 | 45 | 31 | 1.0 | 1.0 | 0.00 | 0.00 | 0.00 | 64 | 1015.2 |
| 20260504033237 | 46 | 76 | 1.0 | 2.0 | 0.00 | 0.00 | 0.00 | 64 | 1015.3 |
| 20260504032734 | 46 | 57 | 2.0 | 2.0 | 0.00 | 0.00 | 0.00 | 59 | 1015.3 |
| 20260504032231 | 46 | 46 | 2.0 | 3.0 | 0.00 | 0.00 | 0.00 | 58 | 1015.1 |
| 20260504031728 | 46 | 52 | 2.0 | 2.0 | 0.00 | 0.00 | 0.00 | 59 | 1015.5 |
| 20260504031225 | 45 | 30 | 2.0 | 2.0 | 0.00 | 0.00 | 0.00 | 56 | 1015.2 |
| 20260504030721 | 45 | 41 | 2.0 | 3.0 | 0.00 | 0.00 | 0.00 | 59 | 1015.1 |
| 20260504030218 | 45 | 37 | 0.0 | 2.0 | 0.00 | 0.00 | 0.00 | 60 | 1014.9 |
| 20260504025715 | 47 | 87 | 2.0 | 2.0 | 0.00 | 0.00 | 0.00 | 61 | 1014.9 |
| 20260504025211 | 47 | 49 | 2.0 | 3.0 | 0.00 | 0.00 | 0.00 | 57 | 1014.8 |
| 20260504024709 | 47 | 49 | 2.0 | 2.0 | 0.00 | 0.00 | 0.00 | 55 | 1014.8 |
| 20260504024205 | 47 | 16 | 2.0 | 3.0 | 0.00 | 0.00 | 0.00 | 53 | 1015.0 |
| 20260504023702 | 46 | 28 | 2.0 | 2.0 | 0.00 | 0.00 | 0.00 | 58 | 1014.8 |
| 20260504023158 | 46 | 64 | 1.0 | 2.0 | 0.00 | 0.00 | 0.00 | 58 | 1015.0 |
| 20260504022654 | 46 | 50 | 2.0 | 3.0 | 0.00 | 0.00 | 0.00 | 56 | 1014.9 |
| 20260504022150 | 47 | 40 | 2.0 | 2.0 | 0.00 | 0.00 | 0.00 | 60 | 1014.9 |
| 20260504021648 | 47 | 10 | 0.0 | 0.0 | 0.00 | 0.00 | 0.00 | 58 | 1015.1 |
| 20260504021145 | 47 | 43 | 1.0 | 2.0 | 0.00 | 0.00 | 0.00 | 54 | 1014.9 |
| 20260504020642 | 47 | 46 | 2.0 | 3.0 | 0.00 | 0.00 | 0.00 | 53 | 1014.9 |
| 20260504020137 | 48 | 50 | 2.0 | 2.0 | 0.00 | 0.00 | 0.00 | 53 | 1014.9 |
| 20260504015635 | 48 | 54 | 2.0 | 2.0 | 0.00 | 0.00 | 0.00 | 56 | 1014.9 |
| 20260504015131 | 48 | 66 | 2.0 | 2.0 | 0.00 | 0.00 | 0.00 | 53 | 1014.8 |
| 20260504014626 | 48 | 49 | 3.0 | 3.0 | 0.00 | 0.00 | 0.00 | 54 | 1014.9 |
| 20260504014124 | 49 | 52 | 1.0 | 2.0 | 0.00 | 0.00 | 0.00 | 54 | 1014.9 |
| 20260504013621 | 49 | 52 | 2.0 | 3.0 | 0.00 | 0.00 | 0.00 | 53 | 1014.8 |
| 20260504013118 | 49 | 48 | 2.0 | 2.0 | 0.00 | 0.00 | 0.00 | 51 | 1014.9 |
| 20260504012616 | 49 | 52 | 2.0 | 2.0 | 0.00 | 0.00 | 0.00 | 51 | 1015.0 |
| 20260504012113 | 49 | 45 | 2.0 | 2.0 | 0.00 | 0.00 | 0.00 | 49 | 1014.8 |
| 20260504011610 | 49 | 18 | 2.0 | 3.0 | 0.00 | 0.00 | 0.00 | 50 | 1014.6 |
| 20260504011106 | 49 | 40 | 2.0 | 3.0 | 0.00 | 0.00 | 0.00 | 49 | 1014.5 |
| 20260504010602 | 50 | 49 | 2.0 | 2.0 | 0.00 | 0.00 | 0.00 | 49 | 1014.7 |
| 20260504010058 | 50 | 66 | 1.0 | 2.0 | 0.00 | 0.00 | 0.00 | 49 | 1014.7 |
| 20260504005555 | 50 | 46 | 2.0 | 2.0 | 0.00 | 0.00 | 0.00 | 51 | 1014.6 |
| 20260504005052 | 51 | 53 | 2.0 | 3.0 | 0.00 | 0.00 | 0.00 | 49 | 1014.7 |
| 20260504004550 | 51 | 74 | 2.0 | 3.0 | 0.00 | 0.00 | 0.00 | 49 | 1014.5 |
| 20260504004047 | 51 | 50 | 2.0 | 2.0 | 0.00 | 0.00 | 0.00 | 47 | 1014.6 |
| 20260504003543 | 51 | 50 | 2.0 | 2.0 | 0.00 | 0.00 | 0.00 | 47 | 1014.3 |
| 20260504003040 | 51 | 57 | 2.0 | 2.0 | 0.00 | 0.00 | 0.00 | 48 | 1014.3 |
| 20260504002537 | 52 | 47 | 1.0 | 2.0 | 0.00 | 0.00 | 0.00 | 48 | 1014.3 |
| 20260504002035 | 53 | 59 | 0.0 | 2.0 | 0.00 | 0.00 | 0.00 | 47 | 1014.2 |
| 20260504001532 | 53 | 67 | 0.0 | 1.0 | 0.00 | 0.00 | 0.00 | 46 | 1014.2 |
| 20260504001028 | 54 | 36 | 1.0 | 2.0 | 0.00 | 0.00 | 0.00 | 44 | 1014.3 |
| 20260504000525 | 54 | 42 | 2.0 | 2.0 | 0.00 | 0.00 | 0.00 | 41 | 1014.1 |
| 20260504000022 | 55 | 41 | 2.0 | 2.0 | 0.00 | 0.00 | 0.00 | 41 | 1014.2 |
| 20260503235521 | 56 | 60 | 0.0 | 2.0 | 0.00 | 0.00 | 0.00 | 39 | 1013.9 |
| 20260503235017 | 57 | 70 | 0.0 | 2.0 | 0.00 | 0.00 | 0.00 | 35 | 1014.0 |
| 20260503234515 | 57 | 250 | 5.0 | 5.0 | 0.00 | 0.00 | 0.00 | 34 | 1013.8 |
| 20260503234013 | 57 | 1 | 1.0 | 5.0 | 0.00 | 0.00 | 0.00 | 35 | 1013.8 |
| 20260503233509 | 58 | 256 | 0.0 | 3.0 | 0.00 | 0.00 | 0.00 | 34 | 1013.9 |
| 20260503233005 | 58 | 245 | 1.0 | 4.0 | 0.00 | 0.00 | 0.00 | 33 | 1013.7 |
| 20260503232502 | 58 | 303 | 2.0 | 6.0 | 0.00 | 0.00 | 0.00 | 32 | 1013.8 |
| 20260503232000 | 58 | 312 | 3.0 | 4.0 | 0.00 | 0.00 | 0.00 | 33 | 1013.6 |
| 20260503231457 | 59 | 17 | 1.0 | 8.0 | 0.00 | 0.00 | 0.00 | 34 | 1013.9 |
| 20260503230954 | 59 | 241 | 2.0 | 5.0 | 0.00 | 0.00 | 0.00 | 33 | 1013.7 |
| 20260503230450 | 59 | 21 | 2.0 | 3.0 | 0.00 | 0.00 | 0.00 | 33 | 1013.8 |
| 20260503225948 | 59 | 235 | 0.0 | 2.0 | 0.00 | 0.00 | 0.00 | 34 | 1013.8 |
| 20260503225445 | 59 | 27 | 2.0 | 4.0 | 0.00 | 0.00 | 0.00 | 32 | 1013.7 |
| 20260503224940 | 59 | 306 | 0.0 | 7.0 | 0.00 | 0.00 | 0.00 | 32 | 1013.8 |
| 20260503224437 | 60 | 27 | 2.0 | 3.0 | 0.00 | 0.00 | 0.00 | 32 | 1013.6 |
| 20260503223935 | 60 | 2 | 3.0 | 12.0 | 0.00 | 0.00 | 0.00 | 31 | 1014.0 |
| 20260503223433 | 60 | 285 | 4.0 | 9.0 | 0.00 | 0.00 | 0.00 | 31 | 1013.6 |
| 20260503222928 | 60 | 283 | 3.0 | 6.0 | 0.00 | 0.00 | 0.00 | 32 | 1013.6 |
| 20260503222427 | 60 | 323 | 1.0 | 2.0 | 0.00 | 0.00 | 0.00 | 32 | 1013.6 |
| 20260503221925 | 60 | 203 | 2.0 | 5.0 | 0.00 | 0.00 | 0.00 | 32 | 1013.9 |
| 20260503221423 | 60 | 249 | 8.0 | 11.0 | 0.00 | 0.00 | 0.00 | 30 | 1013.7 |
| 20260503220919 | 60 | 132 | 1.0 | 6.0 | 0.00 | 0.00 | 0.00 | 32 | 1013.8 |
| 20260503220416 | 60 | 242 | 4.0 | 9.0 | 0.00 | 0.00 | 0.00 | 31 | 1013.8 |
| 20260503215913 | 61 | 262 | 4.0 | 13.0 | 0.00 | 0.00 | 0.00 | 31 | 1013.7 |
| 20260503215410 | 61 | 312 | 6.0 | 9.0 | 0.00 | 0.00 | 0.00 | 30 | 1013.9 |
| 20260503214907 | 60 | 249 | 0.0 | 3.0 | 0.00 | 0.00 | 0.00 | 33 | 1013.8 |
| 20260503214405 | 61 | 355 | 1.0 | 4.0 | 0.00 | 0.00 | 0.00 | 30 | 1013.8 |
| 20260503213902 | 62 | 118 | 1.0 | 4.0 | 0.00 | 0.00 | 0.00 | 30 | 1013.7 |
| 20260503213400 | 60 | 149 | 2.0 | 7.0 | 0.00 | 0.00 | 0.00 | 31 | 1013.7 |
| 20260503212856 | 61 | 296 | 3.0 | 4.0 | 0.00 | 0.00 | 0.00 | 32 | 1013.8 |
| 20260503212354 | 62 | 222 | 3.0 | 6.0 | 0.00 | 0.00 | 0.00 | 29 | 1013.8 |
| 20260503211851 | 62 | 70 | 2.0 | 6.0 | 0.00 | 0.00 | 0.00 | 29 | 1013.6 |
| 20260503211348 | 62 | 140 | 2.0 | 6.0 | 0.00 | 0.00 | 0.00 | 30 | 1013.7 |
| 20260503210843 | 62 | 319 | 4.0 | 7.0 | 0.00 | 0.00 | 0.00 | 29 | 1013.6 |
| 20260503210340 | 61 | 282 | 2.0 | 8.0 | 0.00 | 0.00 | 0.00 | 30 | 1013.6 |
| 20260503205835 | 61 | 265 | 5.0 | 7.0 | 0.00 | 0.00 | 0.00 | 30 | 1013.6 |
| 20260503205332 | 62 | 349 | 4.0 | 8.0 | 0.00 | 0.00 | 0.00 | 29 | 1013.9 |
| 20260503204829 | 61 | 285 | 7.0 | 9.0 | 0.00 | 0.00 | 0.00 | 29 | 1013.9 |
| 20260503204326 | 61 | 295 | 7.0 | 8.0 | 0.00 | 0.00 | 0.00 | 29 | 1013.7 |
| 20260503203823 | 62 | 202 | 4.0 | 6.0 | 0.00 | 0.00 | 0.00 | 31 | 1013.7 |
| 20260503203321 | 61 | 216 | 8.0 | 9.0 | 0.00 | 0.00 | 0.00 | 28 | 1013.9 |
| 20260503202817 | 61 | 350 | 5.0 | 12.0 | 0.00 | 0.00 | 0.00 | 29 | 1014.0 |
| 20260503202315 | 61 | 299 | 4.0 | 8.0 | 0.00 | 0.00 | 0.00 | 30 | 1013.8 |
| 20260503201813 | 61 | 247 | 10.0 | 11.0 | 0.00 | 0.00 | 0.00 | 29 | 1013.9 |
| 20260503201310 | 62 | 146 | 5.0 | 6.0 | 0.00 | 0.00 | 0.00 | 31 | 1013.8 |
| 20260503200808 | 61 | 273 | 1.0 | 4.0 | 0.00 | 0.00 | 0.00 | 31 | 1014.0 |
| 20260503200303 | 60 | 298 | 4.0 | 9.0 | 0.00 | 0.00 | 0.00 | 32 | 1014.1 |
| 20260503195801 | 59 | 60 | 2.0 | 6.0 | 0.00 | 0.00 | 0.00 | 32 | 1014.1 |
| 20260503195257 | 59 | 298 | 5.0 | 6.0 | 0.00 | 0.00 | 0.00 | 30 | 1014.1 |
| 20260503194755 | 61 | 234 | 3.0 | 6.0 | 0.00 | 0.00 | 0.00 | 31 | 1014.2 |
| 20260503194250 | 60 | 237 | 2.0 | 11.0 | 0.00 | 0.00 | 0.00 | 31 | 1014.2 |
| 20260503193747 | 61 | 195 | 4.0 | 11.0 | 0.00 | 0.00 | 0.00 | 30 | 1014.3 |
| 20260503193243 | 61 | 256 | 5.0 | 6.0 | 0.00 | 0.00 | 0.00 | 30 | 1014.3 |
| 20260503192739 | 61 | 201 | 1.0 | 4.0 | 0.00 | 0.00 | 0.00 | 29 | 1014.4 |
| 20260503192234 | 61 | 283 | 2.0 | 5.0 | 0.00 | 0.00 | 0.00 | 30 | 1014.4 |
| 20260503191731 | 60 | 351 | 2.0 | 6.0 | 0.00 | 0.00 | 0.00 | 29 | 1014.4 |
| 20260503191228 | 60 | 352 | 5.0 | 9.0 | 0.00 | 0.00 | 0.00 | 29 | 1014.5 |
| 20260503190725 | 59 | 151 | 1.0 | 4.0 | 0.00 | 0.00 | 0.00 | 32 | 1014.5 |
| 20260503190221 | 60 | 310 | 1.0 | 9.0 | 0.00 | 0.00 | 0.00 | 29 | 1014.7 |
| 20260503185719 | 60 | 354 | 3.0 | 8.0 | 0.00 | 0.00 | 0.00 | 31 | 1014.7 |
| 20260503185214 | 59 | 191 | 2.0 | 6.0 | 0.00 | 0.00 | 0.00 | 30 | 1014.9 |
| 20260503184709 | 59 | 234 | 5.0 | 12.0 | 0.00 | 0.00 | 0.00 | 31 | 1015.0 |
| 20260503184206 | 60 | 178 | 1.0 | 5.0 | 0.00 | 0.00 | 0.00 | 33 | 1015.0 |
| 20260503183702 | 59 | 101 | 6.0 | 6.0 | 0.00 | 0.00 | 0.00 | 31 | 1015.0 |
| 20260503183159 | 57 | 259 | 3.0 | 13.0 | 0.00 | 0.00 | 0.00 | 30 | 1015.0 |
| 20260503182657 | 58 | 67 | 4.0 | 9.0 | 0.00 | 0.00 | 0.00 | 32 | 1015.1 |
| 20260503182156 | 58 | 219 | 5.0 | 8.0 | 0.00 | 0.00 | 0.00 | 32 | 1015.2 |
| 20260503181652 | 58 | 347 | 4.0 | 8.0 | 0.00 | 0.00 | 0.00 | 33 | 1015.1 |
| 20260503181149 | 57 | 345 | 3.0 | 12.0 | 0.00 | 0.00 | 0.00 | 30 | 1015.1 |
| 20260503180646 | 59 | 284 | 6.0 | 7.0 | 0.00 | 0.00 | 0.00 | 33 | 1015.2 |
| 20260503180144 | 57 | 215 | 5.0 | 7.0 | 0.00 | 0.00 | 0.00 | 33 | 1015.3 |
| 20260503175640 | 57 | 259 | 2.0 | 6.0 | 0.00 | 0.00 | 0.00 | 31 | 1015.5 |
| 20260503175138 | 57 | 313 | 2.0 | 6.0 | 0.00 | 0.00 | 0.00 | 32 | 1015.3 |
| 20260503174634 | 56 | 6 | 3.0 | 4.0 | 0.00 | 0.00 | 0.00 | 34 | 1015.4 |
| 20260503174131 | 56 | 188 | 4.0 | 10.0 | 0.00 | 0.00 | 0.00 | 32 | 1015.4 |
| 20260503173626 | 57 | 206 | 5.0 | 12.0 | 0.00 | 0.00 | 0.00 | 35 | 1015.2 |
| 20260503173123 | 57 | 113 | 3.0 | 7.0 | 0.00 | 0.00 | 0.00 | 34 | 1015.3 |
| 20260503172620 | 56 | 122 | 3.0 | 8.0 | 0.00 | 0.00 | 0.00 | 33 | 1015.5 |
| 20260503172118 | 56 | 267 | 4.0 | 10.0 | 0.00 | 0.00 | 0.00 | 33 | 1015.4 |
| 20260503171614 | 56 | 349 | 4.0 | 8.0 | 0.00 | 0.00 | 0.00 | 33 | 1015.5 |
| 20260503171111 | 57 | 101 | 1.0 | 4.0 | 0.00 | 0.00 | 0.00 | 37 | 1015.5 |
| 20260503170608 | 55 | 213 | 4.0 | 6.0 | 0.00 | 0.00 | 0.00 | 37 | 1015.6 |
| 20260503170105 | 54 | 255 | 6.0 | 13.0 | 0.00 | 0.00 | 0.00 | 34 | 1015.8 |
| 20260503151000 | 52 | 215 | 6.0 | 10.0 | 0.00 | 0.00 | 0.00 | 38 | 1016.7 |
| 20260503150456 | 52 | 203 | 3.0 | 14.0 | 0.00 | 0.00 | 0.00 | 38 | 1016.4 |
| 20260503131349 | 48 | 86 | 5.0 | 13.0 | 0.00 | 0.00 | 0.00 | 42 | 1016.8 |
| 20260503130847 | 48 | 172 | 4.0 | 8.0 | 0.00 | 0.00 | 0.00 | 44 | 1017.1 |
| 20260503130344 | 48 | 26 | 3.0 | 12.0 | 0.00 | 0.00 | 0.00 | 43 | 1016.7 |
| 20260503110738 | 39 | 45 | 2.0 | 2.0 | 0.00 | 0.00 | 0.00 | 65 | 1016.1 |
| 20260503110235 | 39 | 64 | 1.0 | 2.0 | 0.00 | 0.00 | 0.00 | 66 | 1015.9 |
| 20260503100201 | 39 | 171 | 2.0 | 3.0 | 0.00 | 0.00 | 0.00 | 65 | 1015.1 |
| 20260503090126 | 40 | 93 | 0.0 | 5.0 | 0.00 | 0.00 | 0.00 | 61 | 1014.3 |
| 20260503081601 | 41 | 229 | 3.0 | 4.0 | 0.00 | 0.00 | 0.00 | 60 | 1014.1 |
| 20260503081059 | 42 | 134 | 1.0 | 2.0 | 0.00 | 0.00 | 0.00 | 60 | 1014.4 |
| 20260503080554 | 42 | 153 | 1.0 | 4.0 | 0.00 | 0.00 | 0.00 | 60 | 1014.0 |